Regional Weather Roundup
Issued by NWS

Home | Current Version | Previous Version | Graphics & Text | Print | Product List | Glossary Off
Versions: 1 2 3 4 5 6 7 8 9 10 11 12 13 14 15 16 17 18 19 20 21 22 23 24 25 26 27 28 29 30 31 32 33 34 35 36 37 38 39 40 41 42 43 44 45 46 47 48 49 50

932
ASUS43 KMKX 300100
RWRWI

WISCONSIN REGIONAL WEATHER ROUNDUP
NATIONAL WEATHER SERVICE MILWAUKEE/SULLIVAN WI
800 PM CDT MON MAY 29 2017

NOTE: "FAIR" INDICATES FEW OR NO CLOUDS BELOW 12,000 FEET WITH NO
SIGNIFICANT WEATHER AND/OR OBSTRUCTIONS TO VISIBILITY.

WIZ001-002-006>008-014>016-023>028-300200-
NORTHWEST WISCONSIN

CITY           SKY/WX    TMP DP  RH WIND       PRES   REMARKS
SUPERIOR ARPT  NOT AVBL
ASHLAND        CLOUDY    57  46  66 W15G22    29.75R
HAYWARD        CLOUDY    56  49  77 W5        29.78R
SIREN          CLOUDY    57  45  64 NW10      29.81R
CUMBERLAND     PTCLDY    54  45  71 NW15G22   29.80R
RICE LAKE      PTCLDY    56  50  78 W12G17    29.81R
CHETEK         PTCLDY    57  49  74 W9        29.79S
LADYSMITH      CLOUDY    55  50  83 W8        29.80S
EAU CLAIRE     NOT AVBL
MENOMONIE      MOCLDY    60  47  62 W17G23    29.81R
NEW RICHMOND   PTCLDY    57  43  59 NW16G24   29.84R
OSCEOLA        MOCLDY    58  45  61 NW10G18   29.86R
$$

WIZ003>005-009-010-017-018-300200-
NORTH CENTRAL WISCONSIN

CITY           SKY/WX    TMP DP  RH WIND       PRES   REMARKS
MANITOWISH WTR CLOUDY    53  48  83 NW12G18   29.74R
ARBOR VITAE    MOCLDY    55  50  85 W5        29.73S
WOODRUFF       MOCLDY    55  50  85 W5        29.73S
RHINELANDER    CLOUDY    53  50  89 W8        29.75S
EAGLE RIVER    LGT RAIN  53  50  89 NW5       29.73R
LAND O LAKES   CLOUDY    54  49  83 NW7       29.74R
PHILLIPS       RAIN      53  52  97 W8        29.75S
TOMAHAWK       CLOUDY    50  47  90 CALM      29.77R FOG
MEDFORD        HVY RAIN  53  49  87 W12G18    29.78R
MERRILL        MOCLDY    54  50  86 W7        29.77R
$$

WIZ029-030-035-036-043>047-300200-
CENTRAL WISCONSIN

CITY           SKY/WX    TMP DP  RH WIND       PRES   REMARKS
WAUSAU         LGT RAIN  53  49  86 W8        29.77S
MOSINEE        LGT RAIN  52  50  93 W6        29.80R
MARSHFIELD     MOCLDY    53  48  83 W9        29.79S
STEVENS POINT  CLOUDY    58  47  68 W14G24    29.80R
WAUPACA        MOCLDY    62  49  62 W12       29.79R
WAUTOMA        CLOUDY    58  47  66 MISG        N/A
WISC RAPIDS    MOCLDY    59  48  67 W7        29.81R
CAMP DOUGLAS   NOT AVBL
$$

WIZ011>013-019>022-031-037>040-048>050-300200-
NORTHEAST WISCONSIN

CITY           SKY/WX    TMP DP  RH WIND       PRES   REMARKS
ANTIGO         LGT RAIN  53  50  91 W13       29.76R
SHAWANO        CLOUDY    61  49  65 W5        29.76R
OCONTO         CLOUDY    55  49  80 W7        29.75R
STURGEON BAY   CLOUDY    58  49  72 W10       29.77R
GREEN BAY      CLEAR     61  50  67 W10       29.77R
MANITOWOC      NOT AVBL
APPLETON       MOCLDY    61  45  55 W8G17     29.77R
CLINTONVILLE   PTCLDY    61  46  59 W9        29.76S
OSHKOSH        PTCLDY    61  48  62 MISG      29.79S
$$

WIZ032>034-041-042-053>061-300200-
SOUTHWEST WISCONSIN

CITY           SKY/WX    TMP DP  RH WIND       PRES   REMARKS
LA CROSSE      MOCLDY    61  51  70 NW6       29.83R
SPARTA         PTCLDY    56  54  92 W3        29.84R
VIROQUA        MOCLDY    60  47  60 SW13      29.85R
BOSCOBEL       PTCLDY    65  45  48 W7        29.86R
PRAIRIE DU CHI CLOUDY    67  41  38 NW20G25   29.86R
PLATTEVILLE    PTCLDY    66  47  50 W13       29.86R
$$

WIZ056-057-062-063-064-067-068-300200-
SOUTH CENTRAL WISCONSIN

CITY           SKY/WX    TMP DP  RH WIND       PRES   REMARKS
REEDSBURG      MOCLDY    56  52  84 W5        29.84S
BARABOO/DELLS  MOCLDY    56  49  79 SW7       29.84S
LONE ROCK      CLEAR     64  46  52 NW9       29.84S
MINERAL POINT  MOCLDY    64  46  52 NW9       29.86S
MADISON        MOCLDY    56  51  84 NW3       29.84F
MIDDLETON      CLOUDY    58  53  83 W5        29.85S
WATERTOWN      MOCLDY    61  48  62 NW6       29.84R
MONROE         MOCLDY    64  45  48 W6        29.86R
JANESVILLE     MOCLDY    66  45  45 W8        29.85R
$$

WIZ051-052-058>065-066-070>072-300200-
SOUTHEAST WISCONSIN

CITY           SKY/WX    TMP DP  RH WIND       PRES   REMARKS
MILWAUKEE      CLOUDY    62  51  67 W7        29.84R
WAUKESHA       PTCLDY    61  45  55 W12       29.85R
MILWAUKEE/TIMM PTCLDY    63  45  51 W8        29.84R
RACINE         PTCLDY    63  46  54 NW5       29.86R
KENOSHA        PTCLDY    65  45  48 W8        29.84R
FOND DU LAC    CLOUDY    62  45  53 SW7       29.81S
SHEBOYGAN      CLOUDY    60  49  66 W9        29.80R
WEST BEND      CLOUDY    59  48  67 W7        29.83R
JUNEAU         MOCLDY    60  46  59 W7        29.85R
$$

LSZ147-162-300200-
LAKE SUPERIOR

STATION/POSITION TIME  TEMP    WIND        PRES    WAVE
                       AIR SEA DIR/SP/G            HT/PER
                 (UTC) (F)     (DEG/KT/KT) (MB)    (FT/S)
W MID LAKE BUOY  2350   43 38  250/ 14/ 16 1004.7R   2/ 4
DEVILS ISLAND    0000   48     230/ 19/ 20 1006.1R
SAXON HARBOR     0030   58     250/  5/  9 1006.8R
$$

LMZ867-665-643>646-300200-
LAKE MICHIGAN

STATION/POSITION TIME  TEMP    WIND        PRES    WAVE
                       AIR SEA DIR/SP/G            HT/PER
                 (UTC) (F)     (DEG/KT/KT) (MB)    (FT/S)
CHAMBERS ISLAND  0040   58     190/  7/ 14 1006.4R
N MID LAKE BUOY  2350   46 41  200/  6/  8 1007.0S   2/ 4
NORTHPORT PIER   0040   60     280/  3/  6 1006.4R
KEWAUNEE LAKESHO 0018   63     250/ 10/ 18 1007.4
SHEBOYGAN LAKESH 0000   62     280/ 14/ 18 1008.6R
PORT WASHINGTON  0030   65     280/  8/ 15 1010.8R
ATWATER BUOY     2309   64     240/ 12/ 19 1009.5R
MILWAUKEE LAKESH 0040   63     240/  7/  9   N/A
S MID LAKE BUOY  2350   55 49  260/  8/  8 1010.3R   2/ 4
KENOSHA   LAKESH 0000   70     280/ 11/ 16 1009.8
$$

TC  - TEMPERATURE IN CELSIUS
VSB - VISIBILITY IN STATUTE MILES
WCI - WIND CHILL INDEX
HX  - HEAT INDEX





USA.gov is the U.S. government's official web portal to all federal, state and local government web resources and services.